SCP
0 0 0 0 0 0 0 0 0 0 0 0 0 0 0 -0 0 0 -0 -0 0 0 0 0 0 0 0 0 0 0 0 0 0 0 0 0 0 0
0 0 0 0 0 0 0 0 0 0 0 0 0 0 0 0 0 0 0 0 0 0 -0 -0 0 0 0 0 0 0 0 0 0 0 0 0 0 0
0 0 0 0 0 0 0 0 0 0 0 0 0 0 0 0 0 0 0 0 0 0 0 0 0 0 0 -0 -0 0 0 0 0 0 0 0 0 0
0 0 0 0 0 0 0 0 0 0 0 0 0 0 0 0 0 0 -0 -0 -0 -0 -0 0 0 0 0 0 0 -0 0 0 0 0 0 0 0 0
0 0 0 0 0 0 0 0 0 0 0 0 0 0 0 0 0 -0 -0 -0 -0 -0 -0 -0 -0 -0 -0 -0 0 0 0 0 0 0 0 0 0 0
0 0 0 0 0 0 0 0 0 0 0 0 0 0 -0 -0 -0 -0 -0 -0 -0 0 -0 -0 -0 -0 -0 -0 -0 -0 -0 -0 0 0 0 0 0 0
0 0 0 0 0 0 0 0 0 0 0 0 0 -0 -0 -0 -0 -0 -0 -0 -0 -0 0 0 0 0 0 -0 -0 -0 -0 -0 -0 0 0 0 0 0
0 0 0 0 0 0 0 0 0 0 0 0 0 0 -0 -0 -0 -0 -0 -0 -0 -0 0 0 0 0 0 0 -0 -0 -0 -0 -0 -0 0 0 0 0
0 0 0 0 0 0 0 0 0 0 0 0 0 0 0 0 0 0 0 0 0 0 0 0 0 0 0 0 0 -0 -0 -0 -0 0 0 0 0 0
0 0 0 0 0 0 0 0 0 0 0 0 0 0 0 0 0 0 0 0 0 0 0 0 0 0 0 0 0 -0 -0 -0 -0 -0 0 0 0 0
0 0 0 0 0 0 0 0 0 0 0 0 0 0 0 0 0 0 0 0 0 0 0 0 0 0 0 0 0 0 0 0 0 0 0 0 0 0
0 0 0 0 0 0 0 0 0 0 0 0 0 0 0 0 0 0 0 0 0 0 0 0 0 0 0 0 0 0 0 0 -0 0 0 0 0 0
0 0 0 0 0 0 0 0 0 0 0 0 0 0 0 0 0 0 0 0 0 0 0 0 0 0 0 0 0 0 0 0 0 0 0 0 0 0
0 0 0 0 0 0 0 0 0 0 0 0 0 0 0 0 0 0 0 0 0 0 0 0 0 0 0 0 0 0 0 0 0 0 0 0 0 0
0 0 0 0 0 0 0 0 0 0 0 0 0 0 0 0 0 0 0 0 0 0 0 0 0 0 0 0 0 0 0 0 0 0 0 0 0 0
0 0 0 0 0 0 0 0 0 0 0 0 0 0 0 0 0 0 0 0 0 0 0 0 0 0 0 0 0 0 0 0 0 0 0 0 0 0
0 0 0 0 0 0 0 0 0 0 0 0 0 0 0 0 0 0 0 0 0 0 0 0 0 0 0 0 0 0 0 0 0 0 0 0 0 0
0 0 0 0 0 0 0 0 0 0 0 0 0 0 0 0 0 0 0 0 0 0 0 0 0 0 0 0 0 0 0 0 0 0 0 0 0 0
0 0 0 0 0 0 0 0 0 0 0 0 0 0 0 0 0 0 0 0 0 0 0 0 0 0 0 0 0 0 0 0 0 0 0 0 0 0
0 0 0 0 0 0 0 0 0 0 0 0 0 0 0 0 0 0 0 0 0 0 0 0 0 0 0 0 0 0 0 0 0 0 0 0 0 0
0 0 0 0 0 0 0 0 0 0 0 0 0 0 0 0 0 0 0 0 0 0 0 0 0 0 0 0 0 0 0 0 0 0 0 0 0 -0
0 0 0 0 0 0 0 0 0 0 0 0 0 0 0 0 0 0 0 0 0 0 0 0 0 0 0 0 0 0 0 0 0 0 0 0 -0 -0
0 0 0 0 0 0 0 0 0 0 0 0 0 0 0 0 0 0 0 0 0 0 0 0 0 0 0 0 0 0 0 0 0 0 0 0 -0 -0
Wind_Speed_500mb
63 55 48 42 39 38 36 33 29 21 21 17 18 29 37 41 47 53 59 61 65 67 65 66 68 69 71 73 73 73 73 71 69 66 66 67 67 65
71 65 57 49 45 41 40 36 34 31 25 24 27 32 35 38 45 51 55 59 62 68 71 69 68 69 71 72 76 78 76 75 77 76 75 75 74 69
78 73 63 55 48 43 44 42 40 37 34 33 34 31 33 40 48 54 57 58 61 64 67 68 69 73 76 78 79 77 78 82 80 82 81 78 77 74
85 79 71 63 55 50 47 47 43 41 39 36 37 37 39 43 47 55 63 69 70 70 67 66 68 69 73 74 78 78 78 80 81 78 80 78 79 77
90 85 77 70 61 55 53 49 46 43 40 37 39 39 46 50 54 59 65 71 77 79 76 70 77 80 83 77 80 83 82 79 79 80 81 78 77 74
96 91 82 72 64 58 56 51 46 40 42 40 38 41 47 49 59 67 75 75 80 80 73 79 92 96 98 90 93 90 91 92 85 75 79 80 79 77
103 95 87 75 69 62 59 53 47 43 41 38 36 40 46 54 61 67 73 79 82 77 79 96 97 102 99 97 97 95 93 89 78 77 78 79 79 81
108 101 90 81 76 69 63 56 50 45 41 39 37 41 46 50 54 61 67 76 85 75 96 104 98 105 101 97 97 99 95 92 83 82 84 86 87 88
110 103 95 87 79 70 63 57 52 45 47 44 39 38 43 42 50 57 62 69 75 79 89 111 101 105 100 106 105 106 106 102 98 92 86 89 92 94
109 105 98 90 83 72 63 58 53 47 42 37 40 34 36 37 44 50 58 71 78 75 75 106 96 105 109 113 109 103 105 104 86 80 85 87 91 93
113 108 97 90 77 71 67 59 54 48 41 38 39 32 28 30 36 46 51 65 83 83 76 70 98 114 119 113 104 110 112 76 87 94 82 81 89 97
111 107 100 88 78 75 70 62 58 47 42 38 33 27 27 31 33 40 48 58 66 79 42 68 94 95 91 102 109 118 109 110 90 88 89 86 94 92
116 105 94 87 81 77 70 64 52 46 42 38 31 27 30 33 35 38 43 51 60 67 72 65 89 89 84 109 122 122 115 107 99 94 93 88 85 85
106 101 94 88 82 76 68 59 52 50 41 33 29 29 32 34 35 39 44 49 55 61 64 60 78 81 89 102 117 129 116 111 100 101 99 94 82 81
99 94 85 84 79 65 55 47 51 42 34 33 32 31 34 37 38 41 47 51 58 58 60 62 68 77 78 97 110 124 112 128 102 75 81 90 90 96
90 84 78 74 65 65 64 60 44 41 38 37 33 31 33 35 38 41 51 57 69 70 66 67 69 72 85 88 100 127 119 107 118 104 102 106 103 101
79 73 72 73 73 71 65 51 46 43 36 34 32 31 33 37 39 41 49 61 69 80 85 78 77 81 86 90 105 110 121 128 112 106 97 108 109 103
80 87 92 90 85 74 64 55 50 40 35 32 30 32 35 38 41 44 51 60 71 77 85 85 85 94 98 98 68 93 103 109 116 105 96 102 122 98
84 93 99 92 75 66 58 57 46 40 35 33 31 32 37 38 43 48 55 62 72 78 83 82 88 77 83 95 113 65 95 112 119 118 102 101 118 118
90 93 86 78 72 62 62 55 51 43 38 36 32 33 34 41 44 49 56 65 72 81 89 88 82 79 73 99 119 134 82 99 105 113 110 107 112 113
100 79 74 73 64 63 59 55 48 42 36 33 30 31 32 39 44 50 60 64 68 75 90 97 93 92 95 94 101 116 117 93 92 103 111 108 109 108
90 80 82 70 66 64 60 52 45 38 33 31 30 30 32 36 42 52 60 66 68 75 93 100 101 98 93 84 102 116 131 123 109 95 88 95 108 110
79 73 75 72 67 62 53 44 37 32 30 28 28 29 30 34 40 52 61 65 71 85 93 106 107 101 92 89 95 112 118 123 118 114 105 85 85 95
Wind_Direction_500mb
235 239 246 255 262 263 261 260 257 259 278 286 303 320 328 330 332 333 333 334 333 331 328 326 323 322 320 318 316 313 310 305 301 300 298 296 294 292
234 239 244 251 256 260 261 259 260 254 251 263 281 301 308 316 321 324 324 325 325 324 324 324 323 318 315 316 317 315 311 305 298 295 293 292 290 290
233 237 241 246 253 257 261 262 262 259 262 271 284 297 309 317 321 321 321 321 319 319 320 321 321 320 320 321 320 319 314 308 302 295 291 287 285 284
232 235 239 244 247 250 254 258 258 260 269 279 290 303 312 318 322 324 326 329 331 331 330 328 323 317 317 324 323 319 317 315 308 301 295 290 285 282
232 234 237 240 245 248 250 252 253 257 267 277 290 304 316 322 324 329 331 329 330 332 334 331 329 328 328 331 323 321 317 313 307 299 291 288 284 282
232 232 233 238 243 247 250 249 245 255 268 278 291 306 315 323 329 329 326 328 328 329 333 329 331 330 331 332 327 324 321 316 311 299 288 282 278 275
230 230 231 233 239 243 244 244 243 250 260 272 288 303 312 323 327 328 325 325 324 333 330 326 328 326 329 327 323 324 322 315 300 294 289 284 280 277
228 227 228 231 235 238 240 239 243 250 258 265 280 300 313 319 321 322 323 324 328 335 326 320 325 323 327 323 321 322 318 310 298 291 287 281 277 274
227 227 227 229 231 233 235 236 241 248 252 271 287 298 303 313 314 315 322 320 318 324 322 315 323 322 324 318 319 319 317 313 309 300 288 280 277 274
228 228 228 229 229 230 230 232 235 241 255 268 279 284 291 301 314 317 317 312 311 315 322 313 324 321 319 316 317 317 315 314 306 293 289 284 278 275
224 225 227 227 226 226 225 225 232 238 247 259 267 281 300 303 304 308 312 311 312 316 324 314 323 320 317 317 319 321 315 307 302 299 288 281 280 277
221 223 224 224 223 226 226 227 230 234 238 247 258 271 287 294 299 305 307 307 305 311 312 314 317 323 317 312 313 319 316 312 303 299 295 290 279 272
220 219 218 221 222 225 225 226 229 229 236 246 254 270 282 291 299 299 300 301 301 304 319 318 313 316 305 306 317 322 312 306 303 298 295 291 284 269
224 221 220 220 220 221 225 223 224 231 235 240 248 263 277 288 293 297 298 300 301 307 316 315 307 312 310 304 301 320 308 301 297 295 292 290 282 274
224 225 220 218 219 213 208 205 212 227 233 240 251 264 278 287 295 300 301 306 307 313 319 321 316 316 307 293 291 299 302 307 298 296 294 288 286 272
219 217 213 211 204 210 200 214 219 224 229 239 251 266 277 286 294 302 310 316 314 317 320 324 326 323 307 289 291 298 301 291 299 292 290 286 281 274
214 207 202 199 206 208 211 217 220 220 226 241 256 268 278 289 300 311 316 316 316 319 321 326 329 326 311 296 293 295 300 300 296 294 292 287 282 276
213 208 205 208 208 206 211 213 216 221 232 246 259 270 280 291 305 313 317 317 317 320 321 327 329 325 321 312 290 298 296 294 297 294 290 285 284 279
213 209 208 204 205 211 207 211 214 224 235 246 258 270 282 295 305 315 320 321 320 321 323 325 324 318 307 301 316 301 298 296 295 293 289 282 279 280
212 213 210 211 212 204 204 210 215 220 230 242 253 266 282 295 306 317 323 324 324 323 325 323 321 318 302 298 302 310 302 298 295 293 291 287 282 283
200 211 214 215 207 202 206 208 215 222 228 238 250 264 278 294 304 319 325 326 325 328 321 321 323 328 319 310 301 301 306 302 297 294 293 288 284 281
205 204 209 208 199 204 206 210 215 220 229 239 251 269 279 292 312 324 327 326 328 328 324 324 328 328 321 310 302 304 308 309 306 303 292 282 278 272
205 208 200 198 198 202 205 210 215 222 230 243 259 270 283 304 317 324 327 328 332 330 328 326 329 329 318 311 307 306 308 310 312 312 305 301 288 273
Wind_Speed_850mb
63 55 48 42 39 38 36 33 29 21 21 17 18 29 37 41 47 53 59 61 65 67 65 66 68 69 71 73 73 73 73 71 69 66 66 67 67 65
71 65 57 49 45 41 40 36 34 31 25 24 27 32 35 38 45 51 55 59 62 68 71 69 68 69 71 72 76 78 76 75 77 76 75 75 74 69
78 73 63 55 48 43 44 42 40 37 34 33 34 31 33 40 48 54 57 58 61 64 67 68 69 73 76 78 79 77 78 82 80 82 81 78 77 74
85 79 71 63 55 50 47 47 43 41 39 36 37 37 39 43 47 55 63 69 70 70 67 66 68 69 73 74 78 78 78 80 81 78 80 78 79 77
90 85 77 70 61 55 53 49 46 43 40 37 39 39 46 50 54 59 65 71 77 79 76 70 77 80 83 77 80 83 82 79 79 80 81 78 77 74
96 91 82 72 64 58 56 51 46 40 42 40 38 41 47 49 59 67 75 75 80 80 73 79 92 96 98 90 93 90 91 92 85 75 79 80 79 77
103 95 87 75 69 62 59 53 47 43 41 38 36 40 46 54 61 67 73 79 82 77 79 96 97 102 99 97 97 95 93 89 78 77 78 79 79 81
108 101 90 81 76 69 63 56 50 45 41 39 37 41 46 50 54 61 67 76 85 75 96 104 98 105 101 97 97 99 95 92 83 82 84 86 87 88
110 103 95 87 79 70 63 57 52 45 47 44 39 38 43 42 50 57 62 69 75 79 89 111 101 105 100 106 105 106 106 102 98 92 86 89 92 94
109 105 98 90 83 72 63 58 53 47 42 37 40 34 36 37 44 50 58 71 78 75 75 106 96 105 109 113 109 103 105 104 86 80 85 87 91 93
113 108 97 90 77 71 67 59 54 48 41 38 39 32 28 30 36 46 51 65 83 83 76 70 98 114 119 113 104 110 112 76 87 94 82 81 89 97
111 107 100 88 78 75 70 62 58 47 42 38 33 27 27 31 33 40 48 58 66 79 42 68 94 95 91 102 109 118 109 110 90 88 89 86 94 92
116 105 94 87 81 77 70 64 52 46 42 38 31 27 30 33 35 38 43 51 60 67 72 65 89 89 84 109 122 122 115 107 99 94 93 88 85 85
106 101 94 88 82 76 68 59 52 50 41 33 29 29 32 34 35 39 44 49 55 61 64 60 78 81 89 102 117 129 116 111 100 101 99 94 82 81
99 94 85 84 79 65 55 47 51 42 34 33 32 31 34 37 38 41 47 51 58 58 60 62 68 77 78 97 110 124 112 128 102 75 81 90 90 96
90 84 78 74 65 65 64 60 44 41 38 37 33 31 33 35 38 41 51 57 69 70 66 67 69 72 85 88 100 127 119 107 118 104 102 106 103 101
79 73 72 73 73 71 65 51 46 43 36 34 32 31 33 37 39 41 49 61 69 80 85 78 77 81 86 90 105 110 121 128 112 106 97 108 109 103
80 87 92 90 85 74 64 55 50 40 35 32 30 32 35 38 41 44 51 60 71 77 85 85 85 94 98 98 68 93 103 109 116 105 96 102 122 98
84 93 99 92 75 66 58 57 46 40 35 33 31 32 37 38 43 48 55 62 72 78 83 82 88 77 83 95 113 65 95 112 119 118 102 101 118 118
90 93 86 78 72 62 62 55 51 43 38 36 32 33 34 41 44 49 56 65 72 81 89 88 82 79 73 99 119 134 82 99 105 113 110 107 112 113
100 79 74 73 64 63 59 55 48 42 36 33 30 31 32 39 44 50 60 64 68 75 90 97 93 92 95 94 101 116 117 93 92 103 111 108 109 108
90 80 82 70 66 64 60 52 45 38 33 31 30 30 32 36 42 52 60 66 68 75 93 100 101 98 93 84 102 116 131 123 109 95 88 95 108 110
79 73 75 72 67 62 53 44 37 32 30 28 28 29 30 34 40 52 61 65 71 85 93 106 107 101 92 89 95 112 118 123 118 114 105 85 85 95
Wind_Direction_850mb
235 239 246 255 262 263 261 260 257 259 278 286 303 320 328 330 332 333 333 334 333 331 328 326 323 322 320 318 316 313 310 305 301 300 298 296 294 292
234 239 244 251 256 260 261 259 260 254 251 263 281 301 308 316 321 324 324 325 325 324 324 324 323 318 315 316 317 315 311 305 298 295 293 292 290 290
233 237 241 246 253 257 261 262 262 259 262 271 284 297 309 317 321 321 321 321 319 319 320 321 321 320 320 321 320 319 314 308 302 295 291 287 285 284
232 235 239 244 247 250 254 258 258 260 269 279 290 303 312 318 322 324 326 329 331 331 330 328 323 317 317 324 323 319 317 315 308 301 295 290 285 282
232 234 237 240 245 248 250 252 253 257 267 277 290 304 316 322 324 329 331 329 330 332 334 331 329 328 328 331 323 321 317 313 307 299 291 288 284 282
232 232 233 238 243 247 250 249 245 255 268 278 291 306 315 323 329 329 326 328 328 329 333 329 331 330 331 332 327 324 321 316 311 299 288 282 278 275
230 230 231 233 239 243 244 244 243 250 260 272 288 303 312 323 327 328 325 325 324 333 330 326 328 326 329 327 323 324 322 315 300 294 289 284 280 277
228 227 228 231 235 238 240 239 243 250 258 265 280 300 313 319 321 322 323 324 328 335 326 320 325 323 327 323 321 322 318 310 298 291 287 281 277 274
227 227 227 229 231 233 235 236 241 248 252 271 287 298 303 313 314 315 322 320 318 324 322 315 323 322 324 318 319 319 317 313 309 300 288 280 277 274
228 228 228 229 229 230 230 232 235 241 255 268 279 284 291 301 314 317 317 312 311 315 322 313 324 321 319 316 317 317 315 314 306 293 289 284 278 275
224 225 227 227 226 226 225 225 232 238 247 259 267 281 300 303 304 308 312 311 312 316 324 314 323 320 317 317 319 321 315 307 302 299 288 281 280 277
221 223 224 224 223 226 226 227 230 234 238 247 258 271 287 294 299 305 307 307 305 311 312 314 317 323 317 312 313 319 316 312 303 299 295 290 279 272
220 219 218 221 222 225 225 226 229 229 236 246 254 270 282 291 299 299 300 301 301 304 319 318 313 316 305 306 317 322 312 306 303 298 295 291 284 269
224 221 220 220 220 221 225 223 224 231 235 240 248 263 277 288 293 297 298 300 301 307 316 315 307 312 310 304 301 320 308 301 297 295 292 290 282 274
224 225 220 218 219 213 208 205 212 227 233 240 251 264 278 287 295 300 301 306 307 313 319 321 316 316 307 293 291 299 302 307 298 296 294 288 286 272
219 217 213 211 204 210 200 214 219 224 229 239 251 266 277 286 294 302 310 316 314 317 320 324 326 323 307 289 291 298 301 291 299 292 290 286 281 274
214 207 202 199 206 208 211 217 220 220 226 241 256 268 278 289 300 311 316 316 316 319 321 326 329 326 311 296 293 295 300 300 296 294 292 287 282 276
213 208 205 208 208 206 211 213 216 221 232 246 259 270 280 291 305 313 317 317 317 320 321 327 329 325 321 312 290 298 296 294 297 294 290 285 284 279
213 209 208 204 205 211 207 211 214 224 235 246 258 270 282 295 305 315 320 321 320 321 323 325 324 318 307 301 316 301 298 296 295 293 289 282 279 280
212 213 210 211 212 204 204 210 215 220 230 242 253 266 282 295 306 317 323 324 324 323 325 323 321 318 302 298 302 310 302 298 295 293 291 287 282 283
200 211 214 215 207 202 206 208 215 222 228 238 250 264 278 294 304 319 325 326 325 328 321 321 323 328 319 310 301 301 306 302 297 294 293 288 284 281
205 204 209 208 199 204 206 210 215 220 229 239 251 269 279 292 312 324 327 326 328 328 324 324 328 328 321 310 302 304 308 309 306 303 292 282 278 272
205 208 200 198 198 202 205 210 215 222 230 243 259 270 283 304 317 324 327 328 332 330 328 326 329 329 318 311 307 306 308 310 312 312 305 301 288 273